sat.trackr.live / text

‹ back to catalog

QIANFAN-107

NORAD 66049 · 2025-233S

PAYLOAD ACTIVE UNKNOWN

§ Identity

Operator
Country
PRC
Launch date
2025-10-17
Launch site
TAISC
Launch vehicle
Mass (kg)
RCS (m²)

External: N2YO · Heavens-Above · Gunter

§ Orbital elements

Epoch: 2026-05-25T03:58:22.154016Z

Period
106.59 min
Inclination
89.0029°
Eccentricity
0.0002140
Mean motion
13.51005793 rev/d
Perigee alt
1,067.0 km
Apogee alt
1,070.2 km
Semi-major
7,446.7 km
B*
1.8808e-4
RAAN
45.5109°
Arg perigee
70.4110°
Mean anomaly
289.7272°
Rev number
3,008

§ Raw data

QIANFAN-1071 66049U 25233S   26145.16553419  .00000133  00000+0  18808-3 0  99962 66049  89.0029  45.5109 0002140  70.4110 289.7272 13.51005793 30081

JSON: /api/v1/satellites/66049 · /tle

For live sub-satellite position, see the globe view (requires WebGL).

§ Visibility from observer

Set your observer location to see the next 7 days of passes ≥ 10°. The values pass through the URL so the page stays shareable.

No JS? Fill the form by hand. The geolocation button needs JavaScript.